Regional Weather Roundup
Issued by NWS

Home | Current Version | Previous Version | Graphics & Text | Print | Product List | Glossary On
Versions: 1 2 3 4 5 6 7 8 9 10 11 12 13 14 15 16 17 18 19 20 21 22 23 24 25 26 27 28 29 30 31 32 33 34 35 36 37 38 39 40 41 42 43 44 45 46 47 48 49 50
000
ASUS43 KMKX 261121
RWRWI

WISCONSIN REGIONAL WEATHER ROUNDUP
NATIONAL WEATHER SERVICE MILWAUKEE/SULLIVAN WI
500 AM CST MON JAN 26 2015

NOTE: "FAIR" INDICATES FEW OR NO CLOUDS BELOW 12,000 FEET WITH NO
SIGNIFICANT WEATHER AND/OR OBSTRUCTIONS TO VISIBILITY.

WIZ001-002-006>008-014>016-023>028-261200-
NORTHWEST WISCONSIN

CITY           SKY/WX    TMP DP  RH WIND       PRES   REMARKS
SUPERIOR ARPT  LGT SNOW  21  19  90 SW6       29.73F WCI  13
ASHLAND        LGT SNOW  19  14  81 S7G18     29.77F WCI  10
HAYWARD        SNOW      19  15  84 S7        29.76F VSB 1/2 WCI  10
SIREN          LGT SNOW  21  18  89 S10       29.75F WCI  10
CUMBERLAND     LGT SNOW  19  18  93 SE7       29.77F VSB 3/4 WCI  10
RICE LAKE      LGT SNOW  20  17  88 SE9       29.81F WCI   9
CHETEK         LGT SNOW  19  16  86 E6        29.82F WCI  11
LADYSMITH      CLOUDY    19  11  73 S6        29.85F WCI  10
EAU CLAIRE     LGT SNOW  20  15  81 S9        29.82F VSB 3/4 WCI   9
MENOMONIE      LGT SNOW  22  18  86 SE8       29.82F VSB 3/4 WCI  12
NEW RICHMOND   LGT SNOW  22  19  90 S8        29.79S WCI  12
OSCEOLA        LGT SNOW  23  22  95 SE9       29.80F WCI  13
$$

WIZ003>005-009-010-017-018-261200-
NORTH CENTRAL WISCONSIN

CITY           SKY/WX    TMP DP  RH WIND       PRES   REMARKS
MANITOWISH WTR LGT SNOW  12   8  87 S6        29.81F WCI   2
ARBOR VITAE    LGT SNOW  14   9  81 S9        29.82F WCI   2
WOODRUFF       LGT SNOW  14   9  81 S9        29.82F WCI   2
RHINELANDER    FLURRIES  13   5  70 SW10      29.85F WCI   0
EAGLE RIVER    CLOUDY    12   4  70 SW6       29.82F WCI   3
LAND O LAKES   CLOUDY    13   6  73 S6        29.83F WCI   4
PHILLIPS       CLOUDY    15   7  71 S8        29.82F WCI   4
TOMAHAWK       CLOUDY    13   6  74 CALM      29.86F
MEDFORD        CLOUDY    14   8  78 S8        29.84F WCI   3
MERRILL        CLOUDY    14   6  69 S5        29.88S WCI   7
$$

WIZ029-030-035-036-043>047-261200-
CENTRAL WISCONSIN

CITY           SKY/WX    TMP DP  RH WIND       PRES   REMARKS
WAUSAU         CLOUDY    14   7  73 S5        29.89F WCI   6
MOSINEE        CLOUDY    12   9  85 SE5       29.90F WCI   4
MARSHFIELD     CLOUDY    16   8  71 S8        29.88F WCI   5
STEVENS POINT  CLOUDY    11   7  83 CALM      29.92F
WAUPACA        CLOUDY    14  10  82 CALM      29.95F
WAUTOMA        CLOUDY    12   8  84 CALM      29.95F
WISC RAPIDS    CLOUDY    14   7  73 S6        29.92F WCI   5
CAMP DOUGLAS   CLOUDY    18  14  86 S8        29.92F WCI   7
$$

WIZ011>013-019>022-031-037>040-048>050-261200-
NORTHEAST WISCONSIN

CITY           SKY/WX    TMP DP  RH WIND       PRES   REMARKS
ANTIGO         CLOUDY    11   5  77 S6        29.87F WCI   2
SHAWANO        CLOUDY    13   9  84 CALM      29.95F
OCONTO         MOCLDY    11   8  91 CALM      29.97F
STURGEON BAY   MOCLDY    10   5  79 CALM      29.97R
GREEN BAY      MOCLDY    13   9  84 CALM      29.97S
MANITOWOC      CLOUDY    14  11  87 CALM      29.97F
APPLETON       NOT AVBL
CLINTONVILLE   CLOUDY    12   9  85 CALM      29.94F
OSHKOSH        MOCLDY    14   8  77 W3        29.95F
$$

WIZ032>034-041-042-053>061-261200-
SOUTHWEST WISCONSIN

CITY           SKY/WX    TMP DP  RH WIND       PRES   REMARKS
LA CROSSE      CLOUDY    23  14  68 S14       29.91F WCI  11
SPARTA         CLOUDY    20  12  71 S3        29.92F
VIROQUA        CLOUDY    19  13  79 S9        29.89F WCI   7
BOSCOBEL       CLOUDY    20  13  74 CALM      29.96F
PRAIRIE DU CHI CLOUDY    21  12  66 CALM      29.96F
PLATTEVILLE    CLOUDY    18  14  83 SE6       29.93F WCI  10
$$

WIZ056-057-062-063-064-067-068-261200-
SOUTH CENTRAL WISCONSIN

CITY           SKY/WX    TMP DP  RH WIND       PRES   REMARKS
REEDSBURG      CLOUDY    16  11  82 S3        29.93F
BARABOO/DELLS  CLOUDY    15  11  83 CALM      29.93F
LONE ROCK      CLOUDY    16  12  84 SE5       29.95F WCI   9
MINERAL POINT  CLOUDY    18  14  86 SE3       29.92F
MADISON        CLOUDY    15  10  80 CALM      29.95F
MIDDLETON      CLOUDY    16  12  82 CALM      29.97S
WATERTOWN      MOCLDY    12  10  90 CALM      29.96S
MONROE         CLOUDY    18  12  79 NW3       29.94F
JANESVILLE     MOCLDY    14  12  92 CALM      29.97F
$$

WIZ051-052-058>065-066-070>072-261200-
SOUTHEAST WISCONSIN

CITY           SKY/WX    TMP DP  RH WIND       PRES   REMARKS
MILWAUKEE      MOCLDY    18  11  74 CALM      29.95F
WAUKESHA       CLEAR     10   9  92 CALM      29.96F
MILWAUKEE/TIMM PTCLDY    14  10  85 CALM      29.96F
RACINE         MOCLDY    18  12  77 W5        29.98F WCI  11
BURLINGTON     CLEAR      8   6  91 CALM      29.95F
KENOSHA        CLOUDY    17  13  84 VRB3      29.96F
FOND DU LAC    MOCLDY    13   7  77 W3        29.96F
SHEBOYGAN      MOCLDY    12   9  87 CALM      29.95F
WEST BEND      MOCLDY    12   9  85 CALM      29.95F
JUNEAU         MOCLDY    11   8  85 W3        29.95F
$$

LSZ147-162-261200-
LAKE SUPERIOR

STATION/POSITION TIME  TEMP    WIND        PRES    WAVE
                       AIR SEA DIR/SP/G            HT/PER
                 (UTC) (F)     (DEG/KT/KT) (MB)    (FT/S)
DEVILS ISLAND    1100   20     180/ 10/ 15 1009.5F
PORT WING        1100   21     170/  9/ 17 1007.5F
SAXON HARBOR     1000   21     190/  8/ 11 1010.8F
$$

LMZ867-665-643>646-261200-
LAKE MICHIGAN

STATION/POSITION TIME  TEMP    WIND        PRES    WAVE
                       AIR SEA DIR/SP/G            HT/PER
                 (UTC) (F)     (DEG/KT/KT) (MB)    (FT/S)
NORTHPORT PIER   1014   15      CALM  /  3 1015.2F
SISTER BAY       1013   11        CALM       N/A
KEWAUNEE LAKESHO 1000          300/  3/  6   N/A
SHEBOYGAN LAKESH 1100   20     260/  3/  3 1015.9F
PORT WASHINGTON  1040   16        CALM     1015.6F
MILWAUKEE LAKESH 1100   19     300/  3/  3   N/A
KENOSHA   LAKESH 1100   19     280/  5/  6 1014.9F
$$

TC  - TEMPERATURE IN CELSIUS
VSB - VISIBILITY IN STATUTE MILES
WCI - WIND CHILL INDEX
HX  - HEAT INDEX




USA.gov is the U.S. government's official web portal to all federal, state and local government web resources and services.